Location: Boitzum
(52.1496°N, 9.6943°E)
Time: 23:36:01
(UTC+00:00)

Cosmos 1844 Rocket - Pass Details

Date: 13 January 2026
Orbit: 822 x 845 km, 71.0° (Epoch: 9 February)

Event Time Altitude Azimuth Distance (km) Brightness Sun altitude
Exits shadow 05:04:48 29° 323° (NW) 1,502 3.6 -20.6°
Drops below altitude 10° 05:09:30 10° 19° (NNE) 2,476 5.2 -19.9°
Sets 05:12:18 0° 31° (NNE) 3,416 6.1 -19.4°
